| time (UTC) | temp C | wind direction | speed KPH | gust KPH | rain 1hr cm | rain 24hr cm | rain mn cm | humidity % | barometer mb |
| 20260504130550 | 13 | 212 | 8.0 | 24.1 | 0.00 | 0.00 | 0.00 | 48 | 1011.0 |
| 20260504120217 | 11 | 203 | 3.2 | 11.3 | 0.00 | 0.00 | 0.00 | 55 | 1012.7 |
| 20260504110531 | 9 | 234 | 4.8 | 12.9 | 0.00 | 0.00 | 0.00 | 60 | 1011.1 |
| 20260504100528 | 5 | 114 | 0.0 | 3.2 | 0.00 | 0.00 | 0.00 | 77 | 1011.0 |
| 20260504100217 | 5 | 91 | 1.6 | 3.2 | 0.00 | 0.00 | 0.00 | 76 | 1012.7 |
| 20260504080903 | 3 | 44 | 3.2 | 6.4 | 0.00 | 0.00 | 0.00 | 80 | 1012.0 |
| 20260504080504 | 3 | 61 | 3.2 | 4.8 | 0.00 | 0.00 | 0.00 | 78 | 1010.6 |
| 20260504060217 | 6 | 69 | 1.6 | 3.2 | 0.00 | 0.00 | 0.00 | 66 | 1012.0 |
| 20260504050426 | 6 | 74 | 0.0 | 0.0 | 0.00 | 0.00 | 0.00 | 64 | 1010.3 |
| 20260504050003 | 6 | 109 | 0.0 | 3.2 | 0.00 | 0.00 | 0.00 | 64 | 1012.0 |
| 20260504045618 | 6 | 99 | 0.0 | 3.2 | 0.00 | 0.00 | 0.00 | 63 | 1012.0 |
| 20260504044921 | 6 | 69 | 1.6 | 1.6 | 0.00 | 0.00 | 0.00 | 64 | 1010.5 |
| 20260504044503 | 6 | 48 | 0.0 | 1.6 | 0.00 | 0.00 | 0.00 | 64 | 1012.0 |
| 20260504043603 | 6 | 22 | 0.0 | 1.6 | 0.00 | 0.00 | 0.00 | 62 | 1012.0 |
| 20260504043419 | 6 | 23 | 0.0 | 0.0 | 0.00 | 0.00 | 0.00 | 63 | 1010.5 |
| 20260504042703 | 6 | 39 | 0.0 | 3.2 | 0.00 | 0.00 | 0.00 | 64 | 1012.0 |
| 20260504041915 | 6 | 56 | 3.2 | 3.2 | 0.00 | 0.00 | 0.00 | 62 | 1010.6 |
| 20260504041803 | 6 | 20 | 1.6 | 3.2 | 0.00 | 0.00 | 0.00 | 62 | 1012.0 |
| 20260504040904 | 6 | 178 | 0.0 | 1.6 | 0.00 | 0.00 | 0.00 | 61 | 1012.0 |
| 20260504040412 | 6 | 23 | 0.0 | 0.0 | 0.00 | 0.00 | 0.00 | 62 | 1010.4 |
| 20260504040008 | 6 | 0 | 0.0 | 0.0 | 0.00 | 0.00 | 0.00 | 62 | 1011.7 |
| 20260504035403 | 6 | 0 | 0.0 | 0.0 | 0.00 | 0.00 | 0.00 | 61 | 1011.7 |
| 20260504034907 | 6 | 23 | 0.0 | 0.0 | 0.00 | 0.00 | 0.00 | 60 | 1010.2 |
| 20260504034717 | 6 | 23 | 0.0 | 1.6 | 0.00 | 0.00 | 0.00 | 59 | 1011.7 |
| 20260504033819 | 7 | 189 | 0.0 | 1.6 | 0.00 | 0.00 | 0.00 | 58 | 1011.7 |
| 20260504033406 | 7 | 194 | 0.0 | 0.0 | 0.00 | 0.00 | 0.00 | 58 | 1010.2 |
| 20260504032703 | 7 | 187 | 0.0 | 1.6 | 0.00 | 0.00 | 0.00 | 58 | 1011.7 |
| 20260504031901 | 7 | 160 | 0.0 | 0.0 | 0.00 | 0.00 | 0.00 | 56 | 1010.2 |
| 20260504031804 | 7 | 167 | 0.0 | 1.6 | 0.00 | 0.00 | 0.00 | 56 | 1011.7 |
| 20260504030903 | 7 | 165 | 0.0 | 1.6 | 0.00 | 0.00 | 0.00 | 55 | 1011.7 |
| 20260504030358 | 7 | 166 | 0.0 | 0.0 | 0.00 | 0.00 | 0.00 | 56 | 1010.2 |
| 20260504030003 | 7 | 161 | 0.0 | 1.6 | 0.00 | 0.00 | 0.00 | 54 | 1011.7 |
| 20260504025403 | 7 | 184 | 0.0 | 1.6 | 0.00 | 0.00 | 0.00 | 56 | 1011.7 |
| 20260504024854 | 7 | 180 | 0.0 | 1.6 | 0.00 | 0.00 | 0.00 | 56 | 1010.2 |
| 20260504024503 | 7 | 0 | 0.0 | 0.0 | 0.00 | 0.00 | 0.00 | 55 | 1011.7 |
| 20260504023603 | 7 | 186 | 1.6 | 3.2 | 0.00 | 0.00 | 0.00 | 55 | 1011.7 |
| 20260504023350 | 7 | 180 | 0.0 | 1.6 | 0.00 | 0.00 | 0.00 | 55 | 1010.3 |
| 20260504022703 | 8 | 182 | 0.0 | 3.2 | 0.00 | 0.00 | 0.00 | 53 | 1011.7 |
| 20260504021850 | 8 | 195 | 0.0 | 0.0 | 0.00 | 0.00 | 0.00 | 51 | 1010.1 |
| 20260504021803 | 8 | 182 | 0.0 | 1.6 | 0.00 | 0.00 | 0.00 | 51 | 1011.7 |
| 20260504020903 | 9 | 191 | 1.6 | 4.8 | 0.00 | 0.00 | 0.00 | 50 | 1011.7 |
| 20260504020347 | 9 | 180 | 1.6 | 3.2 | 0.00 | 0.00 | 0.00 | 49 | 1010.0 |
| 20260504020003 | 9 | 197 | 1.6 | 6.4 | 0.00 | 0.00 | 0.00 | 50 | 1011.3 |
| 20260504015403 | 10 | 201 | 3.2 | 9.7 | 0.00 | 0.00 | 0.00 | 49 | 1011.3 |
| 20260504014847 | 10 | 246 | 1.6 | 9.7 | 0.00 | 0.00 | 0.00 | 48 | 1010.0 |
| 20260504014503 | 10 | 216 | 3.2 | 8.0 | 0.00 | 0.00 | 0.00 | 48 | 1011.7 |
| 20260504013603 | 10 | 208 | 3.2 | 6.4 | 0.00 | 0.00 | 0.00 | 48 | 1011.3 |
| 20260504013344 | 9 | 245 | 4.8 | 4.8 | 0.00 | 0.00 | 0.00 | 48 | 1009.9 |
| 20260504012703 | 10 | 207 | 1.6 | 6.4 | 0.00 | 0.00 | 0.00 | 47 | 1011.3 |
| 20260504012017 | 10 | 211 | 3.2 | 8.0 | 0.00 | 0.00 | 0.00 | 46 | 1011.3 |
| 20260504011842 | 10 | 248 | 4.8 | 6.4 | 0.00 | 0.00 | 0.00 | 46 | 1009.8 |
| 20260504010903 | 10 | 218 | 1.6 | 8.0 | 0.00 | 0.00 | 0.00 | 45 | 1011.0 |
| 20260504010342 | 10 | 246 | 0.0 | 1.6 | 0.00 | 0.00 | 0.00 | 45 | 1009.5 |
| 20260504010003 | 10 | 207 | 1.6 | 9.7 | 0.00 | 0.00 | 0.00 | 45 | 1011.0 |
| 20260504005403 | 10 | 217 | 1.6 | 4.8 | 0.00 | 0.00 | 0.00 | 45 | 1010.6 |
| 20260504004839 | 10 | 234 | 0.0 | 3.2 | 0.00 | 0.00 | 0.00 | 44 | 1009.3 |
| 20260504004503 | 10 | 221 | 1.6 | 4.8 | 0.00 | 0.00 | 0.00 | 43 | 1010.6 |
| 20260504003603 | 10 | 217 | 1.6 | 8.0 | 0.00 | 0.00 | 0.00 | 42 | 1010.3 |
| 20260504003336 | 10 | 237 | 3.2 | 4.8 | 0.00 | 0.00 | 0.00 | 41 | 1009.0 |
| 20260504002917 | 10 | 216 | 1.6 | 4.8 | 0.00 | 0.00 | 0.00 | 41 | 1010.6 |
| 20260504001833 | 11 | 206 | 1.6 | 4.8 | 0.00 | 0.00 | 0.00 | 39 | 1008.9 |
| 20260504001803 | 11 | 215 | 1.6 | 6.4 | 0.00 | 0.00 | 0.00 | 38 | 1010.3 |
| 20260504000903 | 11 | 215 | 1.6 | 6.4 | 0.00 | 0.00 | 0.00 | 39 | 1010.3 |
| 20260504000329 | 11 | 255 | 0.0 | 4.8 | 0.00 | 0.00 | 0.00 | 40 | 1008.9 |
| 20260504000003 | 11 | 215 | 1.6 | 6.4 | 0.00 | 0.00 | 0.00 | 39 | 1010.3 |
| 20260503235403 | 11 | 223 | 1.6 | 6.4 | 0.00 | 0.00 | 0.00 | 37 | 1010.3 |
| 20260503234826 | 11 | 220 | 0.0 | 3.2 | 0.00 | 0.00 | 0.00 | 36 | 1008.6 |
| 20260503234503 | 11 | 232 | 1.6 | 6.4 | 0.00 | 0.00 | 0.00 | 37 | 1010.0 |
| 20260503233603 | 11 | 224 | 3.2 | 9.7 | 0.00 | 0.00 | 0.00 | 36 | 1010.0 |
| 20260503233323 | 11 | 209 | 4.8 | 8.0 | 0.00 | 0.00 | 0.00 | 35 | 1008.6 |
| 20260503232917 | 11 | 219 | 1.6 | 6.4 | 0.00 | 0.00 | 0.00 | 36 | 1010.0 |
| 20260503231821 | 12 | 177 | 4.8 | 4.8 | 0.00 | 0.00 | 0.00 | 34 | 1008.4 |
| 20260503231803 | 11 | 243 | 3.2 | 14.5 | 0.00 | 0.00 | 0.00 | 34 | 1009.3 |
| 20260503230903 | 12 | 242 | 3.2 | 12.9 | 0.00 | 0.00 | 0.00 | 35 | 1009.6 |
| 20260503230316 | 12 | 270 | 3.2 | 4.8 | 0.00 | 0.00 | 0.00 | 34 | 1008.0 |
| 20260503230004 | 12 | 279 | 3.2 | 11.3 | 0.00 | 0.00 | 0.00 | 34 | 1009.6 |
| 20260503225403 | 12 | 270 | 3.2 | 12.9 | 0.00 | 0.00 | 0.00 | 33 | 1009.6 |
| 20260503224812 | 12 | 215 | 4.8 | 4.8 | 0.00 | 0.00 | 0.00 | 36 | 1008.0 |
| 20260503224503 | 12 | 286 | 3.2 | 9.7 | 0.00 | 0.00 | 0.00 | 36 | 1009.6 |
| 20260503223603 | 12 | 233 | 3.2 | 14.5 | 0.00 | 0.00 | 0.00 | 35 | 1009.6 |
| 20260503223311 | 12 | 350 | 3.2 | 4.8 | 0.00 | 0.00 | 0.00 | 34 | 1007.9 |
| 20260503222703 | 12 | 234 | 6.4 | 20.9 | 0.00 | 0.00 | 0.00 | 33 | 1009.6 |
| 20260503221808 | 12 | 270 | 1.6 | 19.3 | 0.00 | 0.00 | 0.00 | 34 | 1007.9 |
| 20260503221803 | 12 | 245 | 6.4 | 19.3 | 0.00 | 0.00 | 0.00 | 34 | 1009.6 |
| 20260503220903 | 12 | 257 | 4.8 | 19.3 | 0.00 | 0.00 | 0.00 | 34 | 1009.6 |
| 20260503220305 | 12 | 235 | 4.8 | 19.3 | 0.00 | 0.00 | 0.00 | 33 | 1008.1 |
| 20260503220003 | 12 | 245 | 4.8 | 16.1 | 0.00 | 0.00 | 0.00 | 34 | 1009.6 |
| 20260503215403 | 12 | 250 | 6.4 | 20.9 | 0.00 | 0.00 | 0.00 | 33 | 1009.6 |
| 20260503214803 | 13 | 301 | 8.0 | 20.9 | 0.00 | 0.00 | 0.00 | 33 | 1007.9 |
| 20260503214503 | 12 | 251 | 6.4 | 25.7 | 0.00 | 0.00 | 0.00 | 33 | 1009.6 |
| 20260503213816 | 12 | 280 | 6.4 | 25.7 | 0.00 | 0.00 | 0.00 | 34 | 1009.3 |
| 20260503213300 | 12 | 322 | 9.7 | 12.9 | 0.00 | 0.00 | 0.00 | 34 | 1008.0 |
| 20260503212703 | 12 | 280 | 6.4 | 20.9 | 0.00 | 0.00 | 0.00 | 34 | 1009.3 |
| 20260503211803 | 12 | 262 | 6.4 | 25.7 | 0.00 | 0.00 | 0.00 | 35 | 1009.6 |
| 20260503211758 | 12 | 310 | 11.3 | 12.9 | 0.00 | 0.00 | 0.00 | 34 | 1007.8 |
| 20260503210903 | 12 | 246 | 4.8 | 20.9 | 0.00 | 0.00 | 0.00 | 34 | 1009.6 |
| 20260503210259 | 13 | 18 | 6.4 | 11.3 | 0.00 | 0.00 | 0.00 | 35 | 1007.8 |
| 20260503210003 | 12 | 281 | 4.8 | 14.5 | 0.00 | 0.00 | 0.00 | 36 | 1009.6 |
| 20260503205403 | 11 | 317 | 4.8 | 12.9 | 0.00 | 0.00 | 0.00 | 36 | 1009.6 |
| 20260503204759 | 13 | 152 | 3.2 | 4.8 | 0.00 | 0.00 | 0.00 | 36 | 1007.8 |
| 20260503204503 | 12 | 272 | 6.4 | 16.1 | 0.00 | 0.00 | 0.00 | 37 | 1009.6 |
| 20260503203603 | 12 | 267 | 6.4 | 27.4 | 0.00 | 0.00 | 0.00 | 38 | 1009.6 |
| 20260503203257 | 12 | 247 | 9.7 | 12.9 | 0.00 | 0.00 | 0.00 | 38 | 1007.7 |
| 20260503202703 | 12 | 263 | 6.4 | 27.4 | 0.00 | 0.00 | 0.00 | 38 | 1009.6 |
| 20260503201803 | 12 | 261 | 4.8 | 20.9 | 0.00 | 0.00 | 0.00 | 38 | 1009.3 |
| 20260503201755 | 12 | 67 | 9.7 | 20.9 | 0.00 | 0.00 | 0.00 | 40 | 1008.0 |
| 20260503200904 | 12 | 276 | 6.4 | 24.1 | 0.00 | 0.00 | 0.00 | 39 | 1009.6 |
| 20260503200251 | 11 | 243 | 6.4 | 16.1 | 0.00 | 0.00 | 0.00 | 40 | 1008.1 |
| 20260503200003 | 10 | 330 | 6.4 | 24.1 | 0.00 | 0.00 | 0.00 | 40 | 1009.6 |
| 20260503195403 | 10 | 243 | 6.4 | 24.1 | 0.00 | 0.00 | 0.00 | 42 | 1010.0 |
| 20260503194749 | 10 | 248 | 4.8 | 20.9 | 0.00 | 0.00 | 0.00 | 42 | 1008.2 |
| 20260503194503 | 10 | 244 | 8.0 | 27.4 | 0.00 | 0.00 | 0.00 | 41 | 1009.6 |
| 20260503193603 | 10 | 288 | 8.0 | 27.4 | 0.00 | 0.00 | 0.00 | 40 | 1010.0 |
| 20260503193248 | 11 | 231 | 20.9 | 20.9 | 0.00 | 0.00 | 0.00 | 40 | 1008.7 |
| 20260503192703 | 10 | 256 | 9.7 | 25.7 | 0.00 | 0.00 | 0.00 | 39 | 1010.0 |
| 20260503191803 | 10 | 319 | 8.0 | 27.4 | 0.00 | 0.00 | 0.00 | 41 | 1010.0 |
| 20260503191748 | 10 | 0 | 8.0 | 9.7 | 0.00 | 0.00 | 0.00 | 43 | 1008.4 |
| 20260503190903 | 10 | 285 | 8.0 | 20.9 | 0.00 | 0.00 | 0.00 | 42 | 1010.0 |
| 20260503190245 | 10 | 290 | 0.0 | 17.7 | 0.00 | 0.00 | 0.00 | 45 | 1008.6 |
| 20260503190217 | 9 | 272 | 6.4 | 20.9 | 0.00 | 0.00 | 0.00 | 44 | 1010.0 |
| 20260503185403 | 10 | 287 | 9.7 | 30.6 | 0.00 | 0.00 | 0.00 | 42 | 1010.0 |
| 20260503184744 | 10 | 243 | 6.4 | 17.7 | 0.00 | 0.00 | 0.00 | 44 | 1008.5 |
| 20260503184503 | 9 | 281 | 8.0 | 25.7 | 0.00 | 0.00 | 0.00 | 43 | 1010.0 |
| 20260503183603 | 10 | 275 | 8.0 | 17.7 | 0.00 | 0.00 | 0.00 | 44 | 1010.0 |
| 20260503183240 | 10 | 215 | 11.3 | 17.7 | 0.00 | 0.00 | 0.00 | 44 | 1008.6 |
| 20260503182704 | 10 | 255 | 8.0 | 24.1 | 0.00 | 0.00 | 0.00 | 43 | 1010.3 |
| 20260503181803 | 9 | 291 | 4.8 | 12.9 | 0.00 | 0.00 | 0.00 | 45 | 1010.0 |
| 20260503181738 | 10 | 327 | 3.2 | 6.4 | 0.00 | 0.00 | 0.00 | 43 | 1008.8 |
| 20260503180903 | 10 | 297 | 6.4 | 20.9 | 0.00 | 0.00 | 0.00 | 44 | 1010.0 |
| 20260503180236 | 10 | 108 | 4.8 | 12.9 | 0.00 | 0.00 | 0.00 | 44 | 1008.7 |
| 20260503180217 | 9 | 271 | 8.0 | 24.1 | 0.00 | 0.00 | 0.00 | 44 | 1010.0 |
| 20260503175403 | 9 | 287 | 6.4 | 20.9 | 0.00 | 0.00 | 0.00 | 43 | 1010.0 |
| 20260503174731 | 9 | 294 | 3.2 | 16.1 | 0.00 | 0.00 | 0.00 | 43 | 1008.6 |
| 20260503174503 | 9 | 266 | 6.4 | 29.0 | 0.00 | 0.00 | 0.00 | 44 | 1010.0 |
| 20260503173817 | 10 | 249 | 6.4 | 29.0 | 0.00 | 0.00 | 0.00 | 43 | 1010.0 |
| 20260503173226 | 10 | 294 | 3.2 | 17.7 | 0.00 | 0.00 | 0.00 | 42 | 1008.5 |
| 20260503172703 | 10 | 269 | 4.8 | 19.3 | 0.00 | 0.00 | 0.00 | 40 | 1010.0 |
| 20260503171803 | 10 | 266 | 6.4 | 24.1 | 0.00 | 0.00 | 0.00 | 42 | 1010.0 |
| 20260503171722 | 10 | 289 | 8.0 | 17.7 | 0.00 | 0.00 | 0.00 | 40 | 1008.6 |
| 20260503170903 | 10 | 292 | 6.4 | 17.7 | 0.00 | 0.00 | 0.00 | 42 | 1010.0 |
| 20260503170220 | 10 | 332 | 3.2 | 14.5 | 0.00 | 0.00 | 0.00 | 44 | 1009.0 |
| 20260503160210 | 8 | 52 | 3.2 | 11.3 | 0.00 | 0.00 | 0.00 | 53 | 1009.2 |
| 20260503150903 | 7 | 300 | 4.8 | 14.5 | 0.00 | 0.00 | 0.00 | 55 | 1011.0 |
| 20260503150200 | 8 | 358 | 4.8 | 6.4 | 0.00 | 0.00 | 0.00 | 54 | 1009.3 |
| 20260503140147 | 9 | 234 | 6.4 | 6.4 | 0.00 | 0.00 | 0.00 | 57 | 1009.3 |